Satellite: NOAA-16
Catalog number: 26536
Epoch time:      11173.88494827
Element set:    0342
Inclination:      099.1387 deg
RA of node:       204.5427 deg
Eccentricity:    0.0010731
Arg of perigee:   021.7530 deg
Mean anomaly:     338.4100 deg
Mean motion:   14.12624726 rev/day
Decay rate:      -2.07e-06 rev/day^2
Epoch rev:           55416
Checksum:              287

Satellite: NOAA-17
Catalog number: 27453
Epoch time:      11173.72607734
Element set:    0331
Inclination:      098.3781 deg
RA of node:       213.1826 deg
Eccentricity:    0.0012561
Arg of perigee:   130.0010 deg
Mean anomaly:     230.2289 deg
Mean motion:   14.24284291 rev/day
Decay rate:        6.8e-07 rev/day^2
Epoch rev:           46744
Checksum:              277

Satellite: NOAA-18
Catalog number: 28654
Epoch time:      11173.77098495
Element set:    0811
Inclination:      098.9958 deg
RA of node:       124.9313 deg
Eccentricity:    0.0015247
Arg of perigee:   088.5657 deg
Mean anomaly:     271.7263 deg
Mean motion:   14.11487611 rev/day
Decay rate:       4.88e-06 rev/day^2
Epoch rev:           31371
Checksum:              342

Satellite: NOAA-19
Catalog number: 33591
Epoch time:      11173.76939019
Element set:    0002
Inclination:      098.8260 deg
RA of node:       113.8301 deg
Eccentricity:    0.0013809
Arg of perigee:   324.6040 deg
Mean anomaly:     035.4230 deg
Mean motion:   14.11176028 rev/day
Decay rate:       -8.0e-08 rev/day^2
Epoch rev:           12217
Checksum:              262

/EX
SB KEPS @ AMSAT  $ORB11174.M
Orbital Elements  11174.MISC

HR AMSAT ORBITAL ELEMENTS FOR MANNED AND MISCELLANEOUS SATELLITES
FROM WA5QGD FORT WORTH,TX June 23, 2011
Send Subscribe/unsubscribe to KEPS at http://www.amsat.org/mailman/listinfo/kep
BID: ORB11174.M
TO ALL RADIO AMATEURS BT

Satellite: HUBBLE
Catalog number: 20580
Epoch time:      11172.77132387
Element set:     784
Inclination:      028.4728 deg
RA of node:       346.5038 deg
Eccentricity:    0.0003524
Arg of perigee:   168.1964 deg
Mean anomaly:     191.8764 deg
Mean motion:   15.01399279 rev/day
Decay rate:       7.45e-06 rev/day^2
Epoch rev:           96034
Checksum:              322

Satellite: ISS
Catalog number: 25544
Epoch time:      11173.84950508
Element set:    0587
Inclination:      051.6425 deg
RA of node:       132.1734 deg
Eccentricity:    0.0011045
Arg of perigee:   275.9893 deg
Mean anomaly:     126.1217 deg
Mean motion:   15.62102585 rev/day
Decay rate:      8.727e-05 rev/day^2
Epoch rev:           72179
Checksum:              303

Satellite: CO-58
Catalog number: 28895
Epoch time:      11173.61609670
Element set:    0907
Inclination:      097.9645 deg
RA of node:       049.7957 deg
Eccentricity:    0.0017281
Arg of perigee:   200.6860 deg
Mean anomaly:     159.3626 deg
Mean motion:   14.60119380 rev/day
Decay rate:       1.75e-06 rev/day^2
Epoch rev:           30103
Checksum:              326

Satellite: FALCON
Catalog number: 30776
Epoch time:      11173.81610133
Element set:    0122
Inclination:      035.4348 deg
RA of node:       312.7516 deg
Eccentricity:    0.0000308
Arg of perigee:   056.6900 deg
Mean anomaly:     303.3846 deg
Mean motion:   15.04693454 rev/day
Decay rate:      1.338e-05 rev/day^2
Epoch rev:           23589
Checksum:              271

Satellite: MAST
Catalog number: 31126
Epoch time:      11173.88616217
Element set:    0198
Inclination:      097.8946 deg
RA of node:       200.7906 deg
Eccentricity:    0.0095329
Arg of perigee:   152.3388 deg
Mean anomaly:     208.2928 deg
Mean motion:   14.53759651 rev/day
Decay rate:       1.64e-06 rev/day^2
Epoch rev:           22191
Checksum:              320

Satellite: CAPE1
Catalog number: 31130
Epoch time:      11173.60212111
Element set:    0207
Inclination:      097.8982 deg
RA of node:       197.2817 deg
Eccentricity:    0.0102545
Arg of perigee:   163.9411 deg
Mean anomaly:     196.5088 deg
Mean motion:   14.52406237 rev/day
Decay rate:       2.25e-06 rev/day^2
Epoch rev:           22142
Checksum:              265

Satellite: COMPASS
Catalog number: 32787
Epoch time:      11173.67805137
Element set:    0019
Inclination:      097.8467 deg
RA of node:       237.3922 deg
Eccentricity:    0.0015973
Arg of perigee:   154.4477 deg
Mean anomaly:     205.7592 deg
Mean motion:   14.82457313 rev/day
Decay rate:       9.17e-06 rev/day^2
Epoch rev:           17037
Checksum:              325

Satellite: AAUSAT2
Catalog number: 32788
Epoch time:      11173.70854488
Element set:    0010
Inclination:      097.8471 deg
RA of node:       237.6488 deg
Eccentricity:    0.0015690
Arg of perigee:   155.2124 deg
Mean anomaly:     204.9813 deg
Mean motion:   14.82644782 rev/day
Decay rate:       7.20e-06 rev/day^2
Epoch rev:           17039
Checksum:              314

Satellite: DO-64
Catalog number: 32789
Epoch time:      11173.78383139
Element set:    0027
Inclination:      097.8569 deg
RA of node:       238.7365 deg
Eccentricity:    0.0015966
Arg of perigee:   152.5075 deg
Mean anomaly:     207.6972 deg
Mean motion:   14.83126390 rev/day
Decay rate:      1.030e-05 rev/day^2
Epoch rev:           17041
Checksum:              329

